Hourly Data Report for September 20, 2017

All times are specified in Local Standard Time (LST). Add 1 hour to adjust for Daylight Saving Time where and when it is observed.

TORONTO INTL A
ONTARIO

43°40'36.000" N
79°37'50.000" W
173.40 m
6158731
71624
YYZ

Download Data

Hourly Data (September 2017)
Hourly Data Report for September 20, 2017
Temp Definition
°C
Dew Point Temp Definition
°C
Rel Hum Definition
%
Wind Dir Definition
10's deg

Wind Spd Definition
km/h
Visibility Definition
km
Stn Press Definition
kPa
Hmdx Definition


Wind Chill Definition


Weather Definition


TIME
00:00 Legend Double Dagger 20.2 17.4 84 4 8 24.1 99.55 26   LegendNANA
01:00 Legend Double Dagger 20.3 17.4 83 4 5 24.1 99.56 26   Mainly Clear
02:00 Legend Double Dagger 19.5 17.0 85 5 8 24.1 99.54     LegendNANA
03:00 Legend Double Dagger 19.0 16.9 88 6 5 24.1 99.54     LegendNANA
04:00 Legend Double Dagger 18.6 16.4 87 4 7 24.1 99.57     Clear
05:00 Legend Double Dagger 18.6 16.5 87 1 6 24.1 99.59     LegendNANA
06:00 Legend Double Dagger 18.2 16.4 89 4 6 16.1 99.59     LegendNANA
07:00 Legend Double Dagger 19.1 18.0 93 7 10 9.7 99.66     Fog
08:00 Legend Double Dagger 19.4 18.1 92 6 8 9.7 99.72     Fog
09:00 Legend Double Dagger 20.6 18.1 85 3 4 12.9 99.74 27   LegendNANA
10:00 Legend Double Dagger 22.6 18.6 78 10 5 12.9 99.70 29   Mostly Cloudy
11:00 Legend Double Dagger 24.3 18.1 68 1 6 16.1 99.69 30   LegendNANA
12:00 Legend Double Dagger 25.0 18.9 68 14 15 19.3 99.67 32   LegendNANA
13:00 Legend Double Dagger 25.1 19.0 69 16 14 19.3 99.65 32   Mainly Clear
14:00 Legend Double Dagger 24.7 18.0 66 15 21 24.1 99.58 31   LegendNANA
15:00 Legend Double Dagger 24.3 19.0 72 13 15 24.1 99.59 31   LegendNANA
16:00 Legend Double Dagger 24.0 18.8 72 12 12 24.1 99.59 31   Clear
17:00 Legend Double Dagger 24.1 17.2 65 10 12 24.1 99.62 30   LegendNANA
18:00 Legend Double Dagger 23.4 16.8 66 12 9 24.1 99.61 29   LegendNANA
19:00 Legend Double Dagger 22.9 16.6 67 10 5 24.1 99.65 28   Mainly Clear
20:00 Legend Double Dagger 22.1 16.3 69 10 8 24.1 99.63 27   LegendNANA
21:00 Legend Double Dagger 21.8 15.3 66 10 7 24.1 99.64 26   LegendNANA
22:00 Legend Double Dagger 21.8 15.3 66 16 6 24.1 99.67 26   Clear
23:00 Legend Double Dagger 20.6 15.4 72 10 6 24.1 99.69 25   LegendNANA

Notes on Data Quality.

Legend

  • E = Estimated
  • M = Missing
  • NA = Not Available
  • ‡ = Partner data that is not subject to review by the National Climate Archives
Date modified: